Weather in Imola

Italy     44°21′33″N   11°42′50″E
temp.,
°C
wind,
m/s
gust,
m/s
humid.,
%
clouds,
%
prec.,
mm/h
press.,
hPa
HPBL,
m
18 may, tue
tue1823:00+12sw611780 0.0 1011215
02:00+12sw612800 0.0 1011204
05:00+11sw510830 0.0 1012211
08:00+15sw587028 0.0 1014402
11:00+20sw564427 0.0 10131337
14:00+21sw8103994 0.0 10131663
17:00+19sw10154412 0.0 10111279
20:00+14sw10175648 0.0 1011606
19 may, wed
wed1923:00+14sw101970100 0.0 1010831
02:00+14wsw91671100 0.0 1011811
05:00+13w4980100 0.4 1012466
08:00+10se1293100 4.7 1016257
11:00+15ese236518 0.1 1016711
14:00+19ese534894 0.1 10151814
17:00+17ese76503 0.0 1014928
20:00+13se347784 0.4 101492
20 may, thu
thu2023:00+10s2391100 2.3 101543
02:00+10wsw2288100 3.2 101527
05:00+9wsw2295100 0.8 101628
08:00+11nw1184100 0.9 1018215
11:00+15n3267100 0.0 1019841
14:00+18nne225174 0.1 10181374
17:00+20n33461 0.1 10181739
20:00+14se237720 0.8 102063
21 may, fri
fri2123:00+11ssw33840 0.9 102224
02:00+10sw33820 0.9 102227
05:00+10sw338146 0.0 102228
08:00+14ssw127061 0.0 1022118
11:00+20e1341100 0.0 10211401
14:00+22sw4434100 0.0 10192383
17:00+21sw6741100 0.0 10181480
20:00+17sw61249100 0.0 1017385
22 may, sat
sat2223:00+15sw614515 0.0 1018455
02:00+12sw510643 0.0 1017196
05:00+11sw4117289 0.0 1015263
08:00+15sw512602 0.0 1015725
11:00+19sw71144100 0.0 10151267
14:00+22sw8124298 0.0 10141717
17:00+22sw8124112 0.0 10131554
20:00+18sw71453100 0.0 1014716